Location: Sternwarte Stuttgart
(48.7670°N, 9.1830°E)
Time: 06:10:10
(UTC+02:00)

CZ-4B R/B - Pass Details

Date: 24 January 2019
Orbit: 809 x 881 km, 99.1° (Epoch: 20 April)

Event Time Altitude Azimuth Distance (km) Brightness Sun altitude
Rises 05:38:22 0° 15° (NNE) 3,398 6.5 -23.6°
Reaches altitude 10° 05:40:45 10° 15° (NNE) 2,449 5.7 -23.3°
Maximum altitude 05:46:11 90° 289° (WNW) 828 3.0 -22.4°
Drops below altitude 10° 05:51:29 10° 197° (SSW) 2,397 5.4 -21.5°
Sets 05:53:48 0° 198° (SSW) 3,321 6.2 -21.1°
